This is the latest recevied weather packets stored in our database for station/object N3TJJ-2. If no packets are shown the sender has not sent any weather packets the latest 10 day(s).
| Time | Temp. | Humidity | Pressure | Rain* | Wind** | Luminosity | Snow |
|---|---|---|---|---|---|---|---|
| 1787928527 | 22.78° C | 70% | 1019.1 hPa | 0 mm | - | - | - |
| 1787928168 | 22.22° C | 68% | 1019 hPa | 0 mm | - | - | - |
| 1787927803 | 22.22° C | 67% | 1019 hPa | 0 mm | - | - | - |
| 1787927442 | 21.67° C | 66% | 1018.8 hPa | 0 mm | - | - | - |
| 1787927154 | 21.67° C | 64% | 1018.8 hPa | 0 mm | - | - | - |
| 1787926746 | 21.11° C | 59% | 1018.8 hPa | 0 mm | - | - | - |
| 1787926370 | 20.56° C | 60% | 1018.7 hPa | 0 mm | - | - | - |
| 1787926117 | 20.56° C | 60% | 1018.7 hPa | 0 mm | - | - | - |
| 1787926002 | 20.56° C | 60% | 1018.7 hPa | 0 mm | - | - | - |
| 1787925642 | 20° C | 57% | 1018.6 hPa | 0 mm | - | - | - |
| 1787925285 | 20° C | 57% | 1018.6 hPa | 0 mm | - | - | - |
| 1787924938 | 20.56° C | 57% | 1018.6 hPa | 0 mm | - | - | - |
| 1787924570 | 20° C | 51% | 1018.5 hPa | 0 mm | - | - | - |
| 1787924219 | 20° C | 49% | 1018.5 hPa | 0 mm | - | - | - |
| 1787923842 | 19.44° C | 48% | 1018.4 hPa | 0 mm | - | - | - |
| 1787923482 | 19.44° C | 41% | 1018.3 hPa | 0 mm | - | - | - |
| 1787923159 | 19.44° C | 43% | 1018.2 hPa | 0 mm | - | - | - |
| 1787922777 | 19.44° C | 40% | 1018.1 hPa | 0 mm | - | - | - |
| 1787922403 | 18.89° C | 41% | 1018 hPa | 0 mm | - | - | - |
| 1787922043 | 19.44° C | 37% | 1018 hPa | 0 mm | - | - | - |
| 1787921710 | 18.89° C | 36% | 1018 hPa | 0 mm | - | - | - |
| 1787921482 | 18.89° C | 38% | 1018 hPa | 0 mm | - | - | - |
| 1787920983 | 18.89° C | 37% | 1018 hPa | 0 mm | - | - | - |
| 1787920644 | 18.89° C | 35% | 1018 hPa | 0 mm | - | - | - |
| 1787920609 | 18.89° C | 35% | 1018 hPa | 0 mm | - | - | - |
* Rain latest hour (hover to see other rain measurements)
** Current wind speed in m/s (hover to see current wind gust speed)